TECHNOSAT (42829 NORAD) Tracking and Keplerian Element Data

This shows tracking and keplerian element data for the satellite.

Feedback or suggestion? Click here.




ElementValue
Catalog42829
NameTECHNOSAT
Epoch Orbit12183
Epoch Day283.09693517
Epoch Year2019
RAAN171.1686
Inclination97.548
Eccentricity0.0015399
Argument of Perigee46.6428
Mean Anonmoly313.6071
Mean Motion14.91006442
Decay Rate2.09E-06
L11 42829U 17042E 19283.09693517 .00000209 00000-0 26469-4 0 9994
L22 42829 97.5480 171.1686 0015399 46.6428 313.6071 14.91006442121834

Live tracking and technical data element details for TECHNOSAT (NORAD 42829). TECHNOSAT can be tracked NOW for your location showing map with azimuth and elevation plus other details from your city location.

Track the satellite on the map from your city or location and see movement details for azimuth, elevation, latitude, longitude, range, height, and movement on the map or in text.







IsCatalogInMostPopularTable: catalog: 42829, numindb: 418
Update: records affected: 1



GetName: 42829 TECHNOSAT

Hit Count: updated at: Mon, 14 Oct 2019 01:26:58 GMT